Flag for Japan Weather past 2 weeks in Suzuka, Japan

Now
68 °F

Mild.


Feels Like: 68 °F
Forecast: 42 / 67 °F
Wind: 6 mph from Northwest

Location: Tsu

Current Time: Mar 30, 2015 at 1:42:19 PM

Latest Report: Mar 30, 2015 at 1:00 PM


Visibility: N/A

Pressure: 30.09 "Hg

Humidity: 38%

Dew point: 41 °F

Location of SuzukaLocation

Historic Weather in Suzuka — Graph

°F

Suzuka temperature yesterday

Maximum temperature yesterday: 55 °F (at 12:00 AM)
Minimum temperature yesterday: 50 °F (at 5:00 AM)
Average temperature yesterday: 53 °F

Past Weeks' High & Low Weather Summary

 TemperatureHumidityPressure
High65 °F (Mar 28, 4:00 PM)97% (Mar 18, 8:00 PM)30.53 "Hg (Mar 18, 8:00 PM)
Low38 °F (Mar 25, 4:00 AM)16% (Mar 26, 4:00 PM)29.70 "Hg (Mar 19, 2:00 PM)
Average52 °F64%30.12 "Hg
* Reported Mar 15 1:00 PM — Mar 30 12:00 Noon, Suzuka, Weather by CustomWeather, © 2015

Note: Actual official high and low records may vary slightly from our data, if they occured in-between our weather recording intervals... More about our weather records

Advertising

Suzuka weather history for previous 24 hours

 ConditionsComfort  
Time TempWeatherWind HumidityBarometerVisibility
12:00 PM
Mon, Mar 30
64 °FMild.7 mph39%30.11 "HgN/A
11:00 AM62 °FRefreshingly cool.9 mph44%30.13 "HgN/A
10:00 AM59 °FRefreshingly cool.13 mph47%30.15 "HgN/A
9:00 AM58 °FPartly sunny.13 mph49%30.13 "Hg6 mi
8:00 AM54 °FCool.9 mph59%30.12 "HgN/A
7:00 AM52 °FCool.9 mph66%30.11 "HgN/A
5:00 AM51 °FCool.6 mph70%30.09 "HgN/A
4:00 AM52 °FCool.7 mph68%30.06 "HgN/A
3:00 AM52 °FCool.9 mph67%30.03 "HgN/A
2:00 AM52 °FCool.12 mph68%30.01 "HgN/A
1:00 AM53 °FCool.9 mph71%30.02 "HgN/A
12:00 AM54 °FCool.12 mph72%30.01 "HgN/A
11:00 PM
Sun, Mar 29
54 °FCool.14 mph79%30.01 "HgN/A
10:00 PM54 °FCool.9 mph82%30.01 "HgN/A
9:00 PM52 °FFog.6 mph94%30.01 "Hg1 mi
8:00 PM53 °FCool.7 mph92%30.01 "HgN/A
7:00 PM54 °FCool.5 mph91%29.99 "HgN/A
6:00 PM54 °FCool.3 mph90%29.98 "HgN/A
5:00 PM53 °FCool.3 mph92%29.97 "HgN/A
4:00 PM52 °FCool.5 mph93%29.96 "HgN/A
3:00 PM52 °FLight rain. Overcast.3 mph93%29.98 "Hg1 mi
2:00 PM53 °FCool.3 mph93%30.01 "HgN/A
1:00 PM55 °FCool.3 mph90%30.03 "HgN/A
Weather by CustomWeather, © 2015

See weather overviewHow to use our weather pages